User: anonymous   Login
Location: ???????
(55.5931°N, 39.3286°E)
Time: 02:47:06
(UTC+00:00)
Language:

Sich 1 - Orbit

View from above orbital plane
View from above orbital plane
View from above satellite
View from above satellite

Ground track
Ground track

The orbit data is extracted from the following two-line orbital elements,

1 23657U 95046A   24174.57456074  .00002044  00000-0  20888-3 0  9992
2 23657  82.5254  10.3755 0019144 225.9516 134.0127 14.89993876557886
Epoch (UTC): 22 June 2024 13:47:22
Eccentricity: 0.0019144
inclination: 82.5254°
perigee height: 584 km
apogee height: 611 km
right ascension of ascending node: 10.3755°
argument of perigee: 225.9516°
revolutions per day: 14.89993876
mean anomaly at epoch: 134.0127°
orbit number at epoch: 55788

The dashed part of the orbit path shows where the satellite is in the earth's shadow,  

DLR